timestamp,wind_dir_avg,wind_spd_max_dir,wind_spd_avg,wind_spd_gust,battery_voltage,lat,long
2018-06-28 00:00:00+00:00,222.0,222.0,9.48,10.4,,47.59359,-54.27349
2018-06-28 00:10:00+00:00,224.0,225.0,8.95,9.99,,47.59359,-54.27349
2018-06-28 00:20:00+00:00,225.0,225.0,8.32,9.46,,47.59359,-54.27349
2018-06-28 00:30:00+00:00,231.0,234.0,9.71,10.55,,47.59359,-54.27349
2018-06-28 00:40:00+00:00,232.0,232.0,9.32,10.07,,47.59359,-54.27349
2018-06-28 00:50:00+00:00,230.0,233.0,7.58,8.53,,47.59359,-54.27349
2018-06-28 01:00:00+00:00,232.0,233.0,9.64,10.48,,47.59359,-54.27349
2018-06-28 01:10:00+00:00,231.0,231.0,9.22,10.15,,47.59359,-54.27349
2018-06-28 01:20:00+00:00,235.0,237.0,8.89,9.66,,47.59359,-54.27349
2018-06-28 01:30:00+00:00,241.0,244.0,6.94,7.65,,47.59359,-54.27349
2018-06-28 01:40:00+00:00,243.0,249.0,6.35,7.46,,47.59359,-54.27349
2018-06-28 01:50:00+00:00,251.0,248.0,8.37,9.28,,47.59359,-54.27349
2018-06-28 02:00:00+00:00,259.0,265.0,7.66,8.7,,47.59359,-54.27349
2018-06-28 02:10:00+00:00,255.0,258.0,6.14,6.94,,47.59359,-54.27349
2018-06-28 02:20:00+00:00,241.0,239.0,5.48,6.72,,47.59359,-54.27349
2018-06-28 02:30:00+00:00,236.0,242.0,3.96,5.0,,47.59359,-54.27349
2018-06-28 02:40:00+00:00,218.0,209.0,4.11,5.03,,47.59359,-54.27349
2018-06-28 02:50:00+00:00,209.0,210.0,6.24,7.03,,47.59359,-54.27349
2018-06-28 03:00:00+00:00,207.0,212.0,7.85,8.77,,47.59359,-54.27349
2018-06-28 03:10:00+00:00,215.0,212.0,6.69,7.72,,47.59359,-54.27349
2018-06-28 03:20:00+00:00,217.0,217.0,7.72,8.18,,47.59359,-54.27349
2018-06-28 03:30:00+00:00,226.0,230.0,6.77,7.66,,47.59359,-54.27349
2018-06-28 03:40:00+00:00,235.0,237.0,6.65,7.77,,47.59359,-54.27349
2018-06-28 03:50:00+00:00,240.0,238.0,6.56,7.39,,47.59359,-54.27349
2018-06-28 04:00:00+00:00,241.0,240.0,6.62,7.3,,47.59359,-54.27349
2018-06-28 04:10:00+00:00,250.0,251.0,6.53,7.27,,47.59359,-54.27349
2018-06-28 04:20:00+00:00,253.0,252.0,5.59,6.45,,47.59359,-54.27349
2018-06-28 04:30:00+00:00,264.0,266.0,5.08,5.96,,47.59359,-54.27349
2018-06-28 04:40:00+00:00,256.0,257.0,4.49,4.92,,47.59359,-54.27349
2018-06-28 04:50:00+00:00,211.0,214.0,3.04,4.18,,47.59359,-54.27349
2018-06-28 05:00:00+00:00,219.0,211.0,2.76,3.43,,47.59359,-54.27349
2018-06-28 05:10:00+00:00,257.0,270.0,1.1,1.42,,47.59359,-54.27349
2018-06-28 05:20:00+00:00,274.0,274.0,1.93,2.31,,47.59359,-54.27349
2018-06-28 05:30:00+00:00,190.0,193.0,2.89,3.28,,47.59359,-54.27349
2018-06-28 05:40:00+00:00,211.0,211.0,3.93,4.32,,47.59359,-54.27349
2018-06-28 05:50:00+00:00,207.0,209.0,3.86,4.48,,47.59359,-54.27349
2018-06-28 06:00:00+00:00,218.0,218.0,5.59,6.63,,47.59359,-54.27349
2018-06-28 06:10:00+00:00,226.0,225.0,4.62,5.14,,47.59359,-54.27349
2018-06-28 06:20:00+00:00,220.0,224.0,5.89,6.53,,47.59359,-54.27349
2018-06-28 06:30:00+00:00,225.0,224.0,5.32,5.78,,47.59359,-54.27349
2018-06-28 06:40:00+00:00,223.0,224.0,5.29,5.67,,47.59359,-54.27349
2018-06-28 06:50:00+00:00,225.0,224.0,4.39,4.6,,47.59359,-54.27349
2018-06-28 07:00:00+00:00,227.0,230.0,3.81,4.2,,47.59359,-54.27349
2018-06-28 07:10:00+00:00,184.0,193.0,2.4,2.65,,47.59359,-54.27349
2018-06-28 07:20:00+00:00,164.0,161.0,1.82,2.23,,47.59359,-54.27349
2018-06-28 07:30:00+00:00,193.0,192.0,0.92,1.04,,47.59359,-54.27349
2018-06-28 07:40:00+00:00,186.0,196.0,1.03,1.15,,47.59359,-54.27349
2018-06-28 07:50:00+00:00,222.0,225.0,1.86,2.25,,47.59359,-54.27349
2018-06-28 08:00:00+00:00,202.0,196.0,2.43,2.66,,47.59359,-54.27349
2018-06-28 08:10:00+00:00,172.0,167.0,1.65,1.92,,47.59359,-54.27349
2018-06-28 08:20:00+00:00,203.0,202.0,4.13,4.64,,47.59359,-54.27349
2018-06-28 08:30:00+00:00,217.0,217.0,4.89,5.47,,47.59359,-54.27349
2018-06-28 08:40:00+00:00,199.0,204.0,4.37,5.08,,47.59359,-54.27349
2018-06-28 08:50:00+00:00,207.0,210.0,5.31,5.95,,47.59359,-54.27349
2018-06-28 09:00:00+00:00,226.0,222.0,3.35,3.85,,47.59359,-54.27349
2018-06-28 09:10:00+00:00,229.0,229.0,3.73,3.98,,47.59359,-54.27349
2018-06-28 09:20:00+00:00,229.0,230.0,3.95,4.52,,47.59359,-54.27349
2018-06-28 09:30:00+00:00,237.0,238.0,4.0,4.54,,47.59359,-54.27349
2018-06-28 09:40:00+00:00,233.0,232.0,6.19,6.79,,47.59359,-54.27349
2018-06-28 09:50:00+00:00,232.0,233.0,6.42,7.19,,47.59359,-54.27349
2018-06-28 10:00:00+00:00,236.0,238.0,6.26,6.95,,47.59359,-54.27349
2018-06-28 10:10:00+00:00,235.0,232.0,5.4,6.21,,47.59359,-54.27349
2018-06-28 10:20:00+00:00,234.0,233.0,6.22,6.63,,47.59359,-54.27349
2018-06-28 10:30:00+00:00,248.0,253.0,5.89,6.47,,47.59359,-54.27349
2018-06-28 10:40:00+00:00,237.0,237.0,6.05,6.74,,47.59359,-54.27349
2018-06-28 10:50:00+00:00,233.0,232.0,7.92,8.55,,47.59359,-54.27349
2018-06-28 11:00:00+00:00,235.0,234.0,8.57,9.66,,47.59359,-54.27349
2018-06-28 11:10:00+00:00,237.0,241.0,8.42,9.82,,47.59359,-54.27349
2018-06-28 11:20:00+00:00,232.0,231.0,8.39,9.32,,47.59359,-54.27349
2018-06-28 11:30:00+00:00,224.0,220.0,9.09,10.35,,47.59359,-54.27349
2018-06-28 11:40:00+00:00,228.0,229.0,8.75,9.78,,47.59359,-54.27349
2018-06-28 11:50:00+00:00,225.0,227.0,8.63,9.65,,47.59359,-54.27349
2018-06-28 12:00:00+00:00,230.0,233.0,8.46,9.43,,47.59359,-54.27349
2018-06-28 12:10:00+00:00,226.0,223.0,8.05,8.9,,47.59359,-54.27349
2018-06-28 12:20:00+00:00,230.0,234.0,7.86,9.21,,47.59359,-54.27349
2018-06-28 12:30:00+00:00,233.0,237.0,7.93,8.84,,47.59359,-54.27349
2018-06-28 12:40:00+00:00,234.0,237.0,6.29,7.33,,47.59359,-54.27349
2018-06-28 12:50:00+00:00,232.0,231.0,7.02,7.79,,47.59359,-54.27349
2018-06-28 13:00:00+00:00,234.0,233.0,7.13,7.73,,47.59359,-54.27349
2018-06-28 13:10:00+00:00,226.0,224.0,6.42,7.17,,47.59359,-54.27349
2018-06-28 13:20:00+00:00,225.0,224.0,6.71,7.87,,47.59359,-54.27349
2018-06-28 13:30:00+00:00,233.0,236.0,7.12,8.11,,47.59359,-54.27349
2018-06-28 13:40:00+00:00,232.0,237.0,8.96,10.39,,47.59359,-54.27349
2018-06-28 13:50:00+00:00,231.0,229.0,8.51,9.46,,47.59359,-54.27349
2018-06-28 14:00:00+00:00,230.0,230.0,9.05,10.77,,47.59359,-54.27349
2018-06-28 14:10:00+00:00,232.0,232.0,11.11,12.78,,47.59359,-54.27349
2018-06-28 14:20:00+00:00,233.0,230.0,9.77,10.92,,47.59359,-54.27349
2018-06-28 14:30:00+00:00,231.0,234.0,9.17,11.53,,47.59359,-54.27349
2018-06-28 14:40:00+00:00,235.0,236.0,9.59,11.64,,47.59359,-54.27349
2018-06-28 14:50:00+00:00,230.0,230.0,9.5,11.52,,47.59359,-54.27349
2018-06-28 15:00:00+00:00,223.0,223.0,9.71,10.6,,47.59359,-54.27349
2018-06-28 15:10:00+00:00,227.0,222.0,11.13,12.32,,47.59359,-54.27349
2018-06-28 15:20:00+00:00,222.0,220.0,10.97,12.4,,47.59359,-54.27349
2018-06-28 15:30:00+00:00,221.0,222.0,10.77,11.89,,47.59359,-54.27349
2018-06-28 15:40:00+00:00,222.0,222.0,11.43,13.15,,47.59359,-54.27349
2018-06-28 15:50:00+00:00,224.0,230.0,10.47,11.15,,47.59359,-54.27349
2018-06-28 16:00:00+00:00,222.0,223.0,9.82,11.0,,47.59359,-54.27349
2018-06-28 16:10:00+00:00,225.0,223.0,8.73,10.24,,47.59359,-54.27349
2018-06-28 16:20:00+00:00,232.0,234.0,6.88,8.95,,47.59359,-54.27349
2018-06-28 16:30:00+00:00,229.0,230.0,9.56,10.7,,47.59359,-54.27349
2018-06-28 16:40:00+00:00,226.0,224.0,8.04,9.49,,47.59359,-54.27349
2018-06-28 16:50:00+00:00,226.0,226.0,7.11,7.94,,47.59359,-54.27349
2018-06-28 17:00:00+00:00,217.0,216.0,8.8,9.75,,47.59359,-54.27349
2018-06-28 17:10:00+00:00,220.0,216.0,9.47,11.58,,47.59359,-54.27349
2018-06-28 17:20:00+00:00,221.0,222.0,9.85,11.06,,47.59359,-54.27349
2018-06-28 17:30:00+00:00,218.0,220.0,10.47,12.13,,47.59359,-54.27349
2018-06-28 17:40:00+00:00,216.0,216.0,10.39,11.57,,47.59359,-54.27349
2018-06-28 17:50:00+00:00,218.0,224.0,10.53,11.63,,47.59359,-54.27349
2018-06-28 18:00:00+00:00,215.0,217.0,10.25,11.35,,47.59359,-54.27349
2018-06-28 18:10:00+00:00,216.0,217.0,9.27,10.16,,47.59359,-54.27349
2018-06-28 18:20:00+00:00,219.0,219.0,10.52,11.82,,47.59359,-54.27349
2018-06-28 18:30:00+00:00,218.0,218.0,11.07,12.11,,47.59359,-54.27349
2018-06-28 18:40:00+00:00,219.0,222.0,11.47,12.98,,47.59359,-54.27349
2018-06-28 18:50:00+00:00,222.0,223.0,12.05,13.45,,47.59359,-54.27349
2018-06-28 19:00:00+00:00,224.0,223.0,12.48,14.28,,47.59359,-54.27349
2018-06-28 19:10:00+00:00,225.0,226.0,13.1,14.5,,47.59359,-54.27349
2018-06-28 19:20:00+00:00,224.0,226.0,12.84,14.5,,47.59359,-54.27349
2018-06-28 19:30:00+00:00,227.0,229.0,12.75,14.34,,47.59359,-54.27349
2018-06-28 19:40:00+00:00,227.0,227.0,12.61,14.49,,47.59359,-54.27349
2018-06-28 19:50:00+00:00,228.0,231.0,12.45,13.78,,47.59359,-54.27349
2018-06-28 20:00:00+00:00,231.0,234.0,13.97,15.54,,47.59359,-54.27349
2018-06-28 20:10:00+00:00,228.0,231.0,12.58,13.57,,47.59359,-54.27349
2018-06-28 20:20:00+00:00,228.0,231.0,12.88,14.51,,47.59359,-54.27349
2018-06-28 20:30:00+00:00,228.0,232.0,10.83,12.5,,47.59359,-54.27349
2018-06-28 20:40:00+00:00,228.0,230.0,11.46,13.27,,47.59359,-54.27349
2018-06-28 20:50:00+00:00,230.0,229.0,12.13,13.88,,47.59359,-54.27349
2018-06-28 21:00:00+00:00,227.0,224.0,11.3,12.78,,47.59359,-54.27349
2018-06-28 21:10:00+00:00,230.0,232.0,11.99,13.93,,47.59359,-54.27349
2018-06-28 21:20:00+00:00,229.0,233.0,11.63,13.1,,47.59359,-54.27349
2018-06-28 21:30:00+00:00,228.0,227.0,12.49,14.39,,47.59359,-54.27349
2018-06-28 21:40:00+00:00,226.0,227.0,13.03,14.36,,47.59359,-54.27349
2018-06-28 21:50:00+00:00,226.0,223.0,13.2,14.71,,47.59359,-54.27349
2018-06-28 22:00:00+00:00,227.0,226.0,12.15,13.62,,47.59359,-54.27349
2018-06-28 22:10:00+00:00,226.0,224.0,11.57,12.63,,47.59359,-54.27349
2018-06-28 22:20:00+00:00,227.0,231.0,11.39,12.36,,47.59359,-54.27349
2018-06-28 22:30:00+00:00,229.0,231.0,11.22,12.82,,47.59359,-54.27349
2018-06-28 22:40:00+00:00,230.0,234.0,10.45,12.02,,47.59359,-54.27349
2018-06-28 22:50:00+00:00,221.0,223.0,10.96,12.76,,47.59359,-54.27349
2018-06-28 23:00:00+00:00,220.0,223.0,10.82,12.33,,47.59359,-54.27349
2018-06-28 23:10:00+00:00,222.0,223.0,11.19,12.53,,47.59359,-54.27349
2018-06-28 23:20:00+00:00,224.0,228.0,10.81,12.46,,47.59359,-54.27349
2018-06-28 23:30:00+00:00,229.0,231.0,9.69,11.08,,47.59359,-54.27349
2018-06-28 23:40:00+00:00,228.0,225.0,10.64,11.71,,47.59359,-54.27349
2018-06-28 23:50:00+00:00,227.0,227.0,10.33,11.25,,47.59359,-54.27349
